FW7858 Weather Reports


Display with metric or nautical units.
time (UTC)temp
F
wind
direction
speed
MPH
gust
MPH
rain 1hr
in
rain 24hr
in
rain mn
in
humidity
%
barometer
mb
20260502234044 66 232 12.0 19.0 0.00 0.00 0.00 32 1005.6
20260502233547 66 255 13.0 19.0 0.00 0.00 0.00 31 1005.7
20260502233042 66 243 14.0 19.0 0.00 0.00 0.00 31 1005.8
20260502232541 66 258 11.0 18.0 0.00 0.00 0.00 31 1005.9
20260502232042 66 257 14.0 18.0 0.00 0.00 0.00 31 1006.0
20260502231540 66 242 12.0 19.0 0.00 0.00 0.00 31 1006.1
20260502231039 67 236 13.0 21.0 0.00 0.00 0.00 30 1006.2
20260502230537 66 279 15.0 21.0 0.00 0.00 0.00 31 1006.2
20260502230037 66 261 12.0 21.0 0.00 0.00 0.00 32 1006.3
20260502225541 66 247 14.0 21.0 0.00 0.00 0.00 31 1006.4
20260502225036 66 265 13.0 19.0 0.00 0.00 0.00 30 1006.5
20260502224535 66 262 14.0 18.0 0.00 0.00 0.00 32 1006.6
20260502224034 66 254 12.0 20.0 0.00 0.00 0.00 34 1006.7
20260502223534 66 261 16.0 21.0 0.00 0.00 0.00 33 1006.8
20260502223040 66 223 13.0 20.0 0.00 0.00 0.00 34 1007.0
20260502222533 65 240 11.0 19.0 0.00 0.00 0.00 35 1007.2
20260502222030 65 258 11.0 21.0 0.00 0.00 0.00 34 1007.3
20260502221530 65 267 15.0 21.0 0.00 0.00 0.00 34 1007.4
20260502221029 65 272 11.0 17.0 0.00 0.00 0.00 34 1007.7
20260502220528 65 259 12.0 20.0 0.00 0.00 0.00 35 1007.9
20260502220034 65 258 14.0 19.0 0.00 0.00 0.00 34 1008.0
20260502215528 65 259 14.0 19.0 0.00 0.00 0.00 35 1007.9
20260502215027 65 248 13.0 23.0 0.00 0.00 0.00 35 1008.2
20260502214525 64 276 15.0 26.0 0.00 0.00 0.00 34 1008.4
20260502214024 64 255 17.0 27.0 0.00 0.00 0.00 35 1008.4
20260502213524 64 275 17.0 26.0 0.00 0.00 0.00 35 1008.7
20260502213024 64 279 15.0 28.0 0.00 0.00 0.00 34 1008.6
20260502212523 64 274 18.0 28.0 0.00 0.00 0.00 35 1008.5
20260502212022 64 270 8.0 21.0 0.00 0.00 0.00 35 1008.7
20260502211530 64 346 8.0 21.0 0.00 0.00 0.00 35 1009.0
20260502211020 64 264 10.0 17.0 0.00 0.00 0.00 34 1009.3
20260502210521 63 289 11.0 16.0 0.00 0.00 0.00 34 1009.2
20260502210019 63 47 4.0 23.0 0.00 0.00 0.00 35 1009.2
20260502205522 64 38 4.0 23.0 0.00 0.00 0.00 33 1009.7
20260502205019 64 294 15.0 24.0 0.00 0.00 0.00 32 1009.3
20260502204521 65 300 16.0 25.0 0.00 0.00 0.00 31 1009.4
20260502204023 65 277 14.0 25.0 0.00 0.00 0.00 33 1009.3
20260502203518 65 288 13.0 21.0 0.00 0.00 0.00 32 1009.4
20260502203021 65 290 9.0 24.0 0.00 0.00 0.00 33 1009.6
20260502202516 65 300 16.0 25.0 0.00 0.00 0.00 33 1009.5
20260502202016 65 278 19.0 27.0 0.00 0.00 0.00 33 1009.4
20260502201516 65 286 19.0 26.0 0.00 0.00 0.00 32 1009.3
20260502201016 65 290 19.0 29.0 0.00 0.00 0.00 33 1009.3
20260502200515 66 294 17.0 24.0 0.00 0.00 0.00 32 1009.4
20260502200015 66 300 13.0 22.0 0.00 0.00 0.00 32 1009.4
20260502195513 66 281 15.0 22.0 0.00 0.00 0.00 33 1009.5
20260502195013 66 289 15.0 25.0 0.00 0.00 0.00 33 1009.5
20260502194520 66 254 16.0 25.0 0.00 0.00 0.00 33 1009.5
20260502194013 66 286 15.0 23.0 0.00 0.00 0.00 34 1009.5
20260502193516 66 280 16.0 23.0 0.00 0.00 0.00 34 1009.6
20260502193012 67 304 15.0 23.0 0.00 0.00 0.00 33 1009.6
20260502192515 67 281 16.0 23.0 0.00 0.00 0.00 33 1009.7
20260502192010 66 297 13.0 20.0 0.00 0.00 0.00 33 1009.8
20260502191510 67 288 15.0 22.0 0.00 0.00 0.00 34 1009.9
20260502191009 67 275 14.0 22.0 0.00 0.00 0.00 33 1009.9
20260502190507 68 283 10.0 21.0 0.00 0.00 0.00 35 1010.0
20260502190105 67 302 11.0 21.0 0.00 0.00 0.00 36 1010.2
20260502185504 66 303 11.0 17.0 0.00 0.00 0.00 36 1010.3
20260502185003 66 263 13.0 22.0 0.00 0.00 0.00 37 1010.4
20260502184502 67 310 16.0 25.0 0.00 0.00 0.00 36 1010.4
20260502184002 67 287 18.0 25.0 0.00 0.00 0.00 36 1010.4
20260502183501 67 257 13.0 20.0 0.00 0.00 0.00 36 1010.6
20260502183108 67 317 14.0 20.0 0.00 0.00 0.00 37 1010.7
20260502182600 67 273 14.0 20.0 0.00 0.00 0.00 40 1010.7
20260502182057 66 278 12.0 21.0 0.00 0.00 0.00 39 1010.8
20260502181557 66 281 14.0 21.0 0.00 0.00 0.00 40 1011.0
20260502181054 65 297 10.0 23.0 0.00 0.00 0.00 42 1011.1
20260502180553 66 286 16.0 23.0 0.00 0.00 0.00 40 1011.2
20260502164029 60 260 12.0 18.0 0.00 0.00 0.00 45 1012.9
20260502163528 60 286 12.0 18.0 0.00 0.00 0.00 45 1012.9
20260502163039 60 282 12.0 18.0 0.00 0.00 0.00 46 1013.1
20260502162527 59 267 13.0 18.0 0.00 0.00 0.00 48 1013.1
20260502162023 59 258 13.0 22.0 0.00 0.00 0.00 50 1013.2
20260502161534 59 269 13.0 22.0 0.00 0.00 0.00 49 1013.3
20260502161021 58 300 9.0 16.0 0.00 0.00 0.00 50 1013.4
20260502160521 58 261 10.0 17.0 0.00 0.00 0.00 49 1013.6
20260502152008 55 271 11.0 18.0 0.00 0.00 0.00 54 1014.2
20260502151505 54 277 11.0 15.0 0.00 0.00 0.00 56 1014.3
20260502151003 54 271 11.0 15.0 0.00 0.00 0.00 57 1014.4
20260502150502 54 249 11.0 15.0 0.00 0.00 0.00 57 1014.4
20260502130532 42 360 6.0 10.0 0.00 0.00 0.00 74 1015.6
20260502123523 37 360 2.0 4.0 0.00 0.00 0.00 82 1016.0
20260502123031 37 360 2.0 5.0 0.00 0.00 0.00 80 1016.2
20260502122520 37 360 2.0 5.0 0.00 0.00 0.00 80 1016.2
20260502122020 36 360 2.0 5.0 0.00 0.00 0.00 80 1016.2
20260502121524 36 360 3.0 5.0 0.00 0.00 0.00 80 1016.3
20260502121018 35 360 2.0 5.0 0.00 0.00 0.00 82 1016.2
20260502120521 34 360 2.0 4.0 0.00 0.00 0.00 83 1016.1
20260502115519 33 360 1.0 3.0 0.00 0.00 0.00 84 1016.1
20260502115017 33 360 1.0 3.0 0.00 0.00 0.00 86 1016.2
20260502114517 32 360 0.0 2.0 0.00 0.00 0.00 87 1016.2
20260502114017 31 360 0.0 0.0 0.00 0.00 0.00 87 1016.2
20260502113518 31 360 0.0 0.0 0.00 0.00 0.00 87 1016.2
20260502113016 31 360 0.0 0.0 0.00 0.00 0.00 86 1016.3
20260502112514 31 360 0.0 0.0 0.00 0.00 0.00 86 1016.3
20260502112013 31 360 0.0 0.0 0.00 0.00 0.00 85 1016.5
20260502111513 32 360 0.0 0.0 0.00 0.00 0.00 85 1016.5
20260502111012 32 360 0.0 0.0 0.00 0.00 0.00 85 1016.4
20260502110512 32 360 0.0 0.0 0.00 0.00 0.00 86 1016.5
20260502110015 32 360 0.0 1.0 0.00 0.00 0.00 86 1016.6
20260502105514 32 360 0.0 2.0 0.00 0.00 0.00 86 1016.6
20260502105010 32 360 0.0 2.0 0.00 0.00 0.00 85 1016.6
20260502104515 32 360 0.0 0.0 0.00 0.00 0.00 84 1016.7
20260502104009 32 360 0.0 0.0 0.00 0.00 0.00 85 1016.7
20260502103512 32 360 0.0 0.0 0.00 0.00 0.00 86 1016.7
20260502103008 32 360 0.0 0.0 0.00 0.00 0.00 86 1016.9
20260502102507 32 360 0.0 0.0 0.00 0.00 0.00 87 1016.9
20260502102007 32 360 0.0 0.0 0.00 0.00 0.00 88 1016.9
20260502101510 32 360 0.0 0.0 0.00 0.00 0.00 88 1016.9
20260502101005 32 360 0.0 0.0 0.00 0.00 0.00 88 1017.1
20260502100505 32 360 0.0 0.0 0.00 0.00 0.00 89 1017.1
20260502091059 31 360 0.0 0.0 0.00 0.00 0.00 89 1017.3
20260502090558 31 360 0.0 0.0 0.00 0.00 0.00 90 1017.4
20260502090105 31 360 0.0 0.0 0.00 0.00 0.00 90 1017.4
20260502080109 30 360 0.0 0.0 0.00 0.00 0.00 91 1017.8
20260502071045 31 360 0.0 0.0 0.00 0.00 0.00 87 1018.1
20260502070543 31 360 0.0 0.0 0.00 0.00 0.00 86 1018.0
20260502070055 32 360 0.0 0.0 0.00 0.00 0.00 86 1018.1
20260502065541 32 360 0.0 0.0 0.00 0.00 0.00 85 1018.2
20260502065039 32 360 0.0 0.0 0.00 0.00 0.00 85 1018.2
20260502064547 33 360 0.0 0.0 0.00 0.00 0.00 84 1018.2
20260502064037 33 360 0.0 0.0 0.00 0.00 0.00 83 1018.2
20260502063536 34 360 0.0 0.0 0.00 0.00 0.00 83 1018.3
20260502063037 34 360 0.0 0.0 0.00 0.00 0.00 84 1018.4
20260502062535 34 360 0.0 0.0 0.00 0.00 0.00 83 1018.3
20260502062036 35 360 0.0 0.0 0.00 0.00 0.00 82 1018.3
20260502061535 35 360 0.0 2.0 0.00 0.00 0.00 84 1018.4
20260502061034 35 360 1.0 2.0 0.00 0.00 0.00 85 1018.3
20260502060533 35 360 1.0 2.0 0.00 0.00 0.00 87 1018.4
20260502060033 34 360 0.0 2.0 0.00 0.00 0.00 87 1018.3
20260502055530 33 360 0.0 2.0 0.00 0.00 0.00 85 1018.4
20260502055030 33 360 0.0 0.0 0.00 0.00 0.00 86 1018.5
20260502054534 33 360 0.0 0.0 0.00 0.00 0.00 86 1018.5
20260502054028 34 360 0.0 2.0 0.00 0.00 0.00 86 1018.5
20260502053529 34 360 0.0 2.0 0.00 0.00 0.00 87 1018.5
20260502053027 34 360 0.0 0.0 0.00 0.00 0.00 88 1018.5
20260502052526 34 360 0.0 0.0 0.00 0.00 0.00 89 1018.5
20260502052025 33 360 0.0 0.0 0.00 0.00 0.00 88 1018.5
20260502051529 33 360 0.0 0.0 0.00 0.00 0.00 87 1018.4
20260502051021 33 360 0.0 0.0 0.00 0.00 0.00 84 1018.4
20260502050521 33 360 0.0 0.0 0.00 0.00 0.00 84 1018.5
20260502050024 33 360 0.0 0.0 0.00 0.00 0.00 82 1018.5
20260502045523 34 360 0.0 2.0 0.00 0.00 0.00 81 1018.5
20260502045020 35 360 0.0 2.0 0.00 0.00 0.00 80 1018.5
20260502044519 35 360 0.0 0.0 0.00 0.00 0.00 82 1018.5
20260502044018 35 360 0.0 0.0 0.00 0.00 0.00 81 1018.5
20260502043518 34 360 0.0 0.0 0.00 0.00 0.00 80 1018.6
20260502043018 34 360 0.0 0.0 0.00 0.00 0.00 79 1018.5
20260502042518 35 360 0.0 0.0 0.00 0.00 0.00 78 1018.6
20260502042020 36 360 0.0 2.0 0.00 0.00 0.00 78 1018.6
20260502041521 37 360 0.0 2.0 0.00 0.00 0.00 75 1018.7
20260502041017 38 360 0.0 1.0 0.00 0.00 0.00 74 1018.7
20260502040520 39 360 0.0 0.0 0.00 0.00 0.00 71 1018.7
20260502040017 39 360 0.0 0.0 0.00 0.00 0.00 71 1018.7
20260502035517 39 360 0.0 2.0 0.00 0.00 0.00 69 1018.7
20260502035017 39 360 0.0 2.0 0.00 0.00 0.00 69 1018.7
20260502034517 40 360 1.0 2.0 0.00 0.00 0.00 69 1018.8
20260502034016 40 360 1.0 2.0 0.00 0.00 0.00 70 1018.8
20260502033519 40 360 1.0 2.0 0.00 0.00 0.00 72 1018.8
20260502033017 40 360 1.0 2.0 0.00 0.00 0.00 74 1018.9
20260502032515 40 360 0.0 1.0 0.00 0.00 0.00 77 1018.8
20260502032015 40 360 0.0 1.0 0.00 0.00 0.00 72 1018.9
20260502031515 40 360 0.0 0.0 0.00 0.00 0.00 61 1018.9
20260502031018 39 360 0.0 0.0 0.00 0.00 0.00 62 1018.9
20260502030515 40 360 0.0 2.0 0.00 0.00 0.00 67 1018.8
20260502030015 41 360 0.0 2.0 0.00 0.00 0.00 68 1018.7
20260502025522 41 360 0.0 0.0 0.00 0.00 0.00 56 1018.8
20260502025015 42 360 0.0 0.0 0.00 0.00 0.00 57 1018.8
20260502024522 42 360 0.0 0.0 0.00 0.00 0.00 60 1018.8
20260502024014 43 360 0.0 0.0 0.00 0.00 0.00 61 1018.8
20260502023514 43 360 0.0 0.0 0.00 0.00 0.00 58 1018.8
20260502023114 44 360 0.0 0.0 0.00 0.00 0.00 59 1018.7
20260502022515 45 360 0.0 0.0 0.00 0.00 0.00 62 1018.7
20260502022017 45 360 0.0 0.0 0.00 0.00 0.00 57 1018.6
20260502021515 45 360 0.0 0.0 0.00 0.00 0.00 50 1018.6
20260502021013 45 360 0.0 0.0 0.00 0.00 0.00 51 1018.6
20260502020514 46 360 0.0 0.0 0.00 0.00 0.00 54 1018.5
20260502020014 46 360 0.0 0.0 0.00 0.00 0.00 53 1018.5
20260502015512 47 360 0.0 0.0 0.00 0.00 0.00 51 1018.5
20260502015012 48 360 0.0 0.0 0.00 0.00 0.00 46 1018.4
20260502014512 48 360 0.0 0.0 0.00 0.00 0.00 45 1018.4
20260502014014 48 360 0.0 0.0 0.00 0.00 0.00 45 1018.4
20260502013511 49 360 0.0 0.0 0.00 0.00 0.00 44 1018.5
20260502013014 49 360 0.0 0.0 0.00 0.00 0.00 43 1018.6
20260502012512 49 360 0.0 0.0 0.00 0.00 0.00 43 1018.5
20260502012014 49 360 0.0 0.0 0.00 0.00 0.00 42 1018.5
20260502011512 50 360 0.0 0.0 0.00 0.00 0.00 43 1018.5
20260502011011 50 360 0.0 1.0 0.00 0.00 0.00 42 1018.5
20260502010513 50 360 0.0 1.0 0.00 0.00 0.00 42 1018.4
20260502010020 51 360 0.0 1.0 0.00 0.00 0.00 42 1018.4
20260502005510 51 360 0.0 2.0 0.00 0.00 0.00 42 1018.3
20260502005013 51 360 0.0 2.0 0.00 0.00 0.00 42 1018.3
20260502004514 51 360 0.0 2.0 0.00 0.00 0.00 41 1018.3
20260502004024 51 360 0.0 4.0 0.00 0.00 0.00 41 1018.3
20260502003510 51 360 1.0 4.0 0.00 0.00 0.00 41 1018.5
20260502003009 52 360 1.0 3.0 0.00 0.00 0.00 41 1018.4
20260502002511 52 360 0.0 4.0 0.00 0.00 0.00 42 1018.4
20260502002011 52 309 0.0 4.0 0.00 0.00 0.00 40 1018.3
20260502001510 52 66 0.0 3.0 0.00 0.00 0.00 41 1018.3
20260502001012 53 67 1.0 5.0 0.00 0.00 0.00 41 1018.3
20260502000508 53 66 1.0 8.0 0.00 0.00 0.00 39 1018.2
20260502000014 53 337 0.0 8.0 0.00 0.00 0.00 39 1018.4
20260501235508 53 28 1.0 5.0 0.00 0.00 0.00 39 1018.3
20260501235011 52 70 1.0 5.0 0.00 0.00 0.00 39 1018.3
20260501234507 53 68 2.0 5.0 0.00 0.00 0.00 39 1018.3